Weather History for Poplar Bluff, MO

Change the Weather History Date:

Thursday, January 3, 2013

  Actual Average Record
Temperature  
Mean Temperature 33 °F -  
Max Temperature 45 °F 41 °F 71 °F (1939)
Min Temperature 21 °F 23 °F -6 °F (1928)
Degree Days  
Heating Degree Days 32    
Moisture  
Dew Point 23 °F    
Average Humidity 74    
Maximum Humidity 89    
Minimum Humidity 44    
Precipitation  
Precipitation 0.00 in - - ()
Sea Level Pressure  
Sea Level Pressure 30.38 in    
Wind  
Wind Speed 1 mph (West)    
Max Wind Speed 6 mph    
Max Gust Speed -    
Visibility 9 miles    
Events      
Averages and records for this station are not official NWS values.
T = Trace of Precipitation, MM = Missing Value Source: NWS Daily Summary

Daily Weather History Graph

Daily Weather History Graph

Search for Another Location

Airport:

Trip Planner

Search our weather history database for the weather conditions in past years. The results will help you decide how hot, cold, wet, or windy it might be!

Date:

Astronomy

Jan. 03, 2013 Rise Set
Actual Time 7:14 AM CST 4:57 PM CST
Civil Twilight 6:45 AM CST 5:26 PM CST
Nautical Twilight 6:13 AM CST 5:58 PM CST
Astronomical Twilight 5:41 AM CST 6:30 PM CST
Moon 11:22 PM CST (1/3) 10:36 AM CST (1/3)
Length of Visible Light 10h 41m
Length of Day
9h 43m
Waning Gibbous, 65% of the Moon is Illuminated
Jan 3
Waning Gibbous
Jan 4
Last Quarter
Jan 11
New
Jan 18
First Quarter
Jan 26
Full

Hourly Weather History & Observations

Time (CST) Temp. Windchill Dew Point Humidity Pressure Visibility Wind Dir Wind Speed Gust Speed Precip Events Conditions
12:53 AM 24.1 °F - 21.0 °F 88% 30.30 in 6.0 mi Calm Calm - N/A   Clear
1:53 AM 23.0 °F - 19.0 °F 85% 30.29 in 6.0 mi Calm Calm - N/A   Clear
2:53 AM 21.9 °F - 19.0 °F 89% 30.31 in 6.0 mi Calm Calm - N/A   Clear
3:53 AM 21.9 °F - 18.0 °F 85% 30.30 in 7.0 mi Calm Calm - N/A   Clear
4:53 AM 21.9 °F - 18.0 °F 85% 30.32 in 7.0 mi Calm Calm - N/A   Clear
5:53 AM 21.9 °F - 17.1 °F 82% 30.34 in 7.0 mi Calm Calm - N/A   Clear
6:53 AM 21.9 °F 17.2 °F 16.0 °F 78% 30.36 in 10.0 mi WNW 3.5 mph - N/A   Clear
7:53 AM 21.9 °F - 17.1 °F 82% 30.36 in 9.0 mi Calm Calm - N/A   Clear
8:53 AM 28.9 °F 22.8 °F 21.9 °F 75% 30.38 in 10.0 mi NNW 5.8 mph - N/A   Clear
9:53 AM 33.1 °F 28.7 °F 24.1 °F 70% 30.41 in 10.0 mi WNW 4.6 mph - N/A   Clear
10:53 AM 37.0 °F - 26.1 °F 65% 30.42 in 10.0 mi Calm Calm - N/A   Clear
11:53 AM 39.0 °F - 26.1 °F 60% 30.39 in 10.0 mi Calm Calm - N/A   Clear
12:53 PM 42.1 °F - 27.0 °F 55% 30.38 in 10.0 mi Calm Calm - N/A   Clear
1:53 PM 43.0 °F 41.3 °F 26.1 °F 51% 30.36 in 10.0 mi East 3.5 mph - N/A   Clear
2:53 PM 45.0 °F - 24.1 °F 44% 30.37 in 10.0 mi Calm Calm - N/A   Clear
3:53 PM 44.1 °F 40.8 °F 24.1 °F 45% 30.38 in 10.0 mi West 5.8 mph - N/A   Clear
4:53 PM 39.0 °F 35.7 °F 28.0 °F 65% 30.38 in 10.0 mi South 4.6 mph - N/A   Clear
5:53 PM 37.0 °F - 28.0 °F 70% 30.41 in 10.0 mi Calm Calm - N/A   Clear
6:53 PM 33.1 °F 28.7 °F 27.0 °F 78% 30.42 in 10.0 mi SSW 4.6 mph - N/A   Clear
7:53 PM 30.9 °F - 27.0 °F 85% 30.43 in 10.0 mi Calm Calm - N/A   Clear
8:53 PM 30.0 °F - 26.1 °F 85% 30.44 in 10.0 mi Calm Calm - N/A   Clear
9:53 PM 28.9 °F - 26.1 °F 89% 30.44 in 8.0 mi Calm Calm - N/A   Clear
10:53 PM 27.0 °F - 24.1 °F 89% 30.45 in 8.0 mi Calm Calm - N/A   Clear
11:53 PM 26.1 °F - 23.0 °F 88% 30.43 in 7.0 mi Calm Calm - N/A   Clear